Location: Dalton
(34.7700°N, 84.9700°W)
Time: 14:57:58
(UTC-04:00)

Tiangong 1 - Pass Details

Date: 16 October 2017
Orbit: 292 x 320 km, 42.8° (Epoch: 22 October)

Event Time Altitude Azimuth Distance (km) Brightness Sun altitude
Rises 20:25:02 0° 293° (WNW) 2,038 6.0 -17.5°
Reaches altitude 10° 20:27:04 10° 287° (WNW) 1,201 4.7 -17.9°
Maximum altitude 20:29:39 45° 212° (SSW) 429 1.4 -18.4°
Enters shadow 20:29:44 45° 205° (SSW) 431 1.4 -18.5°
